Year,Month,Day,Hour,Minute,Value (Times are PST for temperature in C)
2009,05,07,00,00,8.80
2009,05,07,00,01,8.80
2009,05,07,00,02,8.80
2009,05,07,00,03,8.80
2009,05,07,00,04,8.80
2009,05,07,00,05,8.90
2009,05,07,00,06,8.90
2009,05,07,00,07,8.90
2009,05,07,00,08,8.80
2009,05,07,00,09,8.80
2009,05,07,00,10,8.80
2009,05,07,00,11,8.80
2009,05,07,00,12,8.80
2009,05,07,00,13,8.80
2009,05,07,00,14,8.80
2009,05,07,00,15,8.80
2009,05,07,00,16,8.80
2009,05,07,00,17,8.80
2009,05,07,00,18,8.80
2009,05,07,00,19,8.70
2009,05,07,00,20,8.70
2009,05,07,00,21,8.70
2009,05,07,00,22,8.70
2009,05,07,00,23,8.70
2009,05,07,00,24,8.60
2009,05,07,00,25,8.60
2009,05,07,00,26,8.60
2009,05,07,00,27,8.60
2009,05,07,00,28,8.60
2009,05,07,00,29,8.60
2009,05,07,00,30,8.70
2009,05,07,00,31,8.70
2009,05,07,00,32,8.60
2009,05,07,00,33,8.60
2009,05,07,00,34,8.60
2009,05,07,00,35,8.70
2009,05,07,00,36,8.70
2009,05,07,00,37,8.70
2009,05,07,00,38,8.70
2009,05,07,00,39,8.60
2009,05,07,00,40,8.60
2009,05,07,00,41,8.60
2009,05,07,00,42,8.60
2009,05,07,00,43,8.60
2009,05,07,00,44,8.60
2009,05,07,00,45,8.60
2009,05,07,00,46,8.50
2009,05,07,00,47,8.50
2009,05,07,00,48,8.40
2009,05,07,00,49,8.40
2009,05,07,00,50,8.40
2009,05,07,00,51,8.50
2009,05,07,00,52,8.50
2009,05,07,00,53,8.60
2009,05,07,00,54,8.60
2009,05,07,00,55,8.60
2009,05,07,00,56,8.60
2009,05,07,00,57,8.60
2009,05,07,00,58,8.50
2009,05,07,00,59,8.50
2009,05,07,01,00,8.50
2009,05,07,01,01,8.50
2009,05,07,01,02,8.40
2009,05,07,01,03,8.50
2009,05,07,01,04,8.50
2009,05,07,01,05,8.50
2009,05,07,01,06,8.60
2009,05,07,01,07,8.50
2009,05,07,01,08,8.50
2009,05,07,01,09,8.40
2009,05,07,01,10,8.40
2009,05,07,01,11,8.50
2009,05,07,01,12,8.50
2009,05,07,01,13,8.50
2009,05,07,01,14,8.50
2009,05,07,01,15,8.50
2009,05,07,01,16,8.50
2009,05,07,01,17,8.60
2009,05,07,01,18,8.60
2009,05,07,01,19,8.60
2009,05,07,01,20,8.60
2009,05,07,01,21,8.60
2009,05,07,01,22,8.60
2009,05,07,01,23,8.60
2009,05,07,01,24,8.50
2009,05,07,01,25,8.50
2009,05,07,01,26,8.50
2009,05,07,01,27,8.50
2009,05,07,01,28,8.50
2009,05,07,01,29,8.50
2009,05,07,01,30,8.40
2009,05,07,01,31,8.40
2009,05,07,01,32,8.40
2009,05,07,01,33,8.40
2009,05,07,01,34,8.40
2009,05,07,01,35,8.40
2009,05,07,01,36,8.40
2009,05,07,01,37,8.40
2009,05,07,01,38,8.30
2009,05,07,01,39,8.30
2009,05,07,01,40,8.40
2009,05,07,01,41,8.30
2009,05,07,01,42,8.30
2009,05,07,01,43,8.30
2009,05,07,01,44,8.30
2009,05,07,01,45,8.30
2009,05,07,01,46,8.30
2009,05,07,01,47,8.30
2009,05,07,01,48,8.30
2009,05,07,01,49,8.30
2009,05,07,01,50,8.30
2009,05,07,01,51,8.30
2009,05,07,01,52,8.30
2009,05,07,01,53,8.30
2009,05,07,01,54,8.30
2009,05,07,01,55,8.30
2009,05,07,01,56,8.30
2009,05,07,01,57,8.20
2009,05,07,01,58,8.20
2009,05,07,01,59,8.20
2009,05,07,02,00,8.10
2009,05,07,02,01,8.00
2009,05,07,02,02,8.00
2009,05,07,02,03,7.90
2009,05,07,02,04,7.90
2009,05,07,02,05,7.80
2009,05,07,02,06,7.80
2009,05,07,02,07,7.90
2009,05,07,02,08,7.90
2009,05,07,02,09,7.80
2009,05,07,02,10,7.90
2009,05,07,02,11,7.80
2009,05,07,02,12,7.80
2009,05,07,02,13,7.80
2009,05,07,02,14,7.80
2009,05,07,02,15,7.80
2009,05,07,02,16,7.90
2009,05,07,02,17,7.80
2009,05,07,02,18,7.80
2009,05,07,02,19,7.80
2009,05,07,02,20,7.80
2009,05,07,02,21,7.80
2009,05,07,02,22,7.70
2009,05,07,02,23,7.70
2009,05,07,02,24,7.70
2009,05,07,02,25,7.70
2009,05,07,02,26,7.80
2009,05,07,02,27,7.80
2009,05,07,02,28,7.80
2009,05,07,02,29,7.80
2009,05,07,02,30,7.80
2009,05,07,02,31,7.80
2009,05,07,02,32,7.80
2009,05,07,02,33,7.80
2009,05,07,02,34,7.80
2009,05,07,02,35,7.80
2009,05,07,02,36,7.80
2009,05,07,02,37,7.80
2009,05,07,02,38,7.80
2009,05,07,02,39,7.80
2009,05,07,02,40,7.80
2009,05,07,02,41,7.80
2009,05,07,02,42,7.80
2009,05,07,02,43,7.80
2009,05,07,02,44,7.80
2009,05,07,02,45,7.80
2009,05,07,02,46,7.80
2009,05,07,02,47,7.80
2009,05,07,02,48,7.80
2009,05,07,02,49,7.80
2009,05,07,02,50,7.80
2009,05,07,02,51,7.80
2009,05,07,02,52,7.80
2009,05,07,02,53,7.80
2009,05,07,02,54,7.80
2009,05,07,02,55,7.80
2009,05,07,02,56,7.80
2009,05,07,02,57,7.70
2009,05,07,02,58,7.70
2009,05,07,02,59,7.70
2009,05,07,03,00,7.70
2009,05,07,03,01,7.70
2009,05,07,03,02,7.70
2009,05,07,03,03,7.80
2009,05,07,03,04,7.80
2009,05,07,03,05,7.80
2009,05,07,03,06,7.80
2009,05,07,03,07,7.80
2009,05,07,03,08,7.80
2009,05,07,03,09,7.80
2009,05,07,03,10,7.80
2009,05,07,03,11,7.80
2009,05,07,03,12,7.70
2009,05,07,03,13,7.70
2009,05,07,03,14,7.70
2009,05,07,03,15,7.70
2009,05,07,03,16,7.70
2009,05,07,03,17,7.70
2009,05,07,03,18,7.80
2009,05,07,03,19,7.80
2009,05,07,03,20,7.80
2009,05,07,03,21,7.80
2009,05,07,03,22,7.80
2009,05,07,03,23,7.80
2009,05,07,03,24,7.80
2009,05,07,03,25,7.90
2009,05,07,03,26,7.90
2009,05,07,03,27,7.90
2009,05,07,03,28,7.90
2009,05,07,03,29,7.90
2009,05,07,03,30,7.90
2009,05,07,03,31,7.90
2009,05,07,03,32,7.90
2009,05,07,03,33,7.90
2009,05,07,03,34,7.90
2009,05,07,03,35,7.90
2009,05,07,03,36,7.90
2009,05,07,03,37,7.90
2009,05,07,03,38,7.90
2009,05,07,03,39,7.80
2009,05,07,03,40,7.80
2009,05,07,03,41,7.80
2009,05,07,03,42,7.80
2009,05,07,03,43,7.80
2009,05,07,03,44,7.80
2009,05,07,03,45,7.80
2009,05,07,03,46,7.80
2009,05,07,03,47,7.80
2009,05,07,03,48,7.80
2009,05,07,03,49,7.80
2009,05,07,03,50,7.80
2009,05,07,03,51,7.80
2009,05,07,03,52,7.80
2009,05,07,03,53,7.80
2009,05,07,03,54,7.80
2009,05,07,03,55,7.70
2009,05,07,03,56,7.70
2009,05,07,03,57,7.70
2009,05,07,03,58,7.70
2009,05,07,03,59,7.80
2009,05,07,04,00,7.80
2009,05,07,04,01,7.80
2009,05,07,04,02,7.80
2009,05,07,04,03,7.80
2009,05,07,04,04,7.80
2009,05,07,04,05,7.80
2009,05,07,04,06,7.80
2009,05,07,04,07,7.80
2009,05,07,04,08,7.80
2009,05,07,04,09,7.80
2009,05,07,04,10,7.80
2009,05,07,04,11,7.80
2009,05,07,04,12,7.80
2009,05,07,04,13,7.80
2009,05,07,04,14,7.80
2009,05,07,04,15,7.80
2009,05,07,04,16,7.80
2009,05,07,04,17,7.80
2009,05,07,04,18,7.80
2009,05,07,04,19,7.80
2009,05,07,04,20,7.80
2009,05,07,04,21,7.80
2009,05,07,04,22,7.80
2009,05,07,04,23,7.80
2009,05,07,04,24,7.80
2009,05,07,04,25,7.80
2009,05,07,04,26,7.80
2009,05,07,04,27,7.80
2009,05,07,04,28,7.80
2009,05,07,04,29,7.80
2009,05,07,04,30,7.80
2009,05,07,04,31,7.80
2009,05,07,04,32,7.80
2009,05,07,04,33,7.80
2009,05,07,04,34,7.80
2009,05,07,04,35,7.80
2009,05,07,04,36,7.80
2009,05,07,04,37,7.70
2009,05,07,04,38,7.70
2009,05,07,04,39,7.70
2009,05,07,04,40,7.70
2009,05,07,04,41,7.70
2009,05,07,04,42,7.70
2009,05,07,04,43,7.70
2009,05,07,04,44,7.70
2009,05,07,04,45,7.80
2009,05,07,04,46,7.80
2009,05,07,04,47,7.80
2009,05,07,04,48,7.80
2009,05,07,04,49,7.80
2009,05,07,04,50,7.80
2009,05,07,04,51,7.80
2009,05,07,04,52,7.80
2009,05,07,04,53,7.80
2009,05,07,04,54,7.80
2009,05,07,04,55,7.80
2009,05,07,04,56,7.80
2009,05,07,04,57,7.80
2009,05,07,04,58,7.90
2009,05,07,04,59,7.90
2009,05,07,05,00,7.90
2009,05,07,05,01,7.90
2009,05,07,05,02,7.90
2009,05,07,05,03,7.90
2009,05,07,05,04,7.90
2009,05,07,05,05,7.80
2009,05,07,05,06,7.80
2009,05,07,05,07,7.80
2009,05,07,05,08,7.80
2009,05,07,05,09,7.80
2009,05,07,05,10,7.80
2009,05,07,05,11,7.80
2009,05,07,05,12,7.80
2009,05,07,05,13,7.80
2009,05,07,05,14,7.80
2009,05,07,05,15,7.80
2009,05,07,05,16,7.80
2009,05,07,05,17,7.80
2009,05,07,05,18,7.70
2009,05,07,05,19,7.70
2009,05,07,05,20,7.70
2009,05,07,05,21,7.70
2009,05,07,05,22,7.70
2009,05,07,05,23,7.70
2009,05,07,05,24,7.70
2009,05,07,05,25,7.70
2009,05,07,05,26,7.70
2009,05,07,05,27,7.70
2009,05,07,05,28,7.70
2009,05,07,05,29,7.70
2009,05,07,05,30,7.70
2009,05,07,05,31,7.70
2009,05,07,05,32,7.70
2009,05,07,05,33,7.70
2009,05,07,05,34,7.70
2009,05,07,05,35,7.60
2009,05,07,05,36,7.70
2009,05,07,05,37,7.70
2009,05,07,05,38,7.70
2009,05,07,05,39,7.70
2009,05,07,05,40,7.70
2009,05,07,05,41,7.70
2009,05,07,05,42,7.70
2009,05,07,05,43,7.70
2009,05,07,05,44,7.70
2009,05,07,05,45,7.70
2009,05,07,05,46,7.70
2009,05,07,05,47,7.70
2009,05,07,05,48,7.70
2009,05,07,05,49,7.70
2009,05,07,05,50,7.70
2009,05,07,05,51,7.70
2009,05,07,05,52,7.70
2009,05,07,05,53,7.70
2009,05,07,05,54,7.70
2009,05,07,05,55,7.70
2009,05,07,05,56,7.70
2009,05,07,05,57,7.70
2009,05,07,05,58,7.60
2009,05,07,05,59,7.70
2009,05,07,06,00,7.70
2009,05,07,06,01,7.70
2009,05,07,06,02,7.70
2009,05,07,06,03,7.70
2009,05,07,06,04,7.70
2009,05,07,06,05,7.70
2009,05,07,06,06,7.70
2009,05,07,06,07,7.70
2009,05,07,06,08,7.70
2009,05,07,06,09,7.70
2009,05,07,06,10,7.70
2009,05,07,06,11,7.70
2009,05,07,06,12,7.80
2009,05,07,06,13,7.80
2009,05,07,06,14,7.80
2009,05,07,06,15,7.80
2009,05,07,06,16,7.80
2009,05,07,06,17,7.80
2009,05,07,06,18,7.80
2009,05,07,06,19,7.80
2009,05,07,06,20,7.80
2009,05,07,06,21,7.90
2009,05,07,06,22,7.90
2009,05,07,06,23,7.90
2009,05,07,06,24,7.90
2009,05,07,06,25,7.90
2009,05,07,06,26,8.00
2009,05,07,06,27,8.00
2009,05,07,06,28,8.00
2009,05,07,06,29,8.00
2009,05,07,06,30,8.00
2009,05,07,06,31,8.00
2009,05,07,06,32,8.00
2009,05,07,06,33,8.00
2009,05,07,06,34,8.00
2009,05,07,06,35,8.00
2009,05,07,06,36,8.00
2009,05,07,06,37,8.00
2009,05,07,06,38,8.00
2009,05,07,06,39,8.10
2009,05,07,06,40,8.00
2009,05,07,06,41,8.10
2009,05,07,06,42,8.10
2009,05,07,06,43,8.10
2009,05,07,06,44,8.10
2009,05,07,06,45,8.10
2009,05,07,06,46,8.10
2009,05,07,06,47,8.10
2009,05,07,06,48,8.10
2009,05,07,06,49,8.10
2009,05,07,06,50,8.10
2009,05,07,06,51,8.10
2009,05,07,06,52,8.10
2009,05,07,06,53,8.10
2009,05,07,06,54,8.10
2009,05,07,06,55,8.10
2009,05,07,06,56,8.10
2009,05,07,06,57,8.10
2009,05,07,06,58,8.10
2009,05,07,06,59,8.20
2009,05,07,07,00,8.20
2009,05,07,07,01,8.20
2009,05,07,07,02,8.20
2009,05,07,07,03,8.20
2009,05,07,07,04,8.20
2009,05,07,07,05,8.10
2009,05,07,07,06,8.10
2009,05,07,07,07,8.10
2009,05,07,07,08,8.10
2009,05,07,07,09,8.10
2009,05,07,07,10,8.10
2009,05,07,07,11,8.10
2009,05,07,07,12,8.10
2009,05,07,07,13,8.10
2009,05,07,07,14,8.10
2009,05,07,07,15,8.10
2009,05,07,07,16,8.10
2009,05,07,07,17,8.10
2009,05,07,07,18,8.10
2009,05,07,07,19,8.10
2009,05,07,07,20,8.10
2009,05,07,07,21,8.10
2009,05,07,07,22,8.10
2009,05,07,07,23,8.10
2009,05,07,07,24,8.10
2009,05,07,07,25,8.10
2009,05,07,07,26,8.10
2009,05,07,07,27,8.10
2009,05,07,07,28,8.10
2009,05,07,07,29,8.10
2009,05,07,07,30,8.10
2009,05,07,07,31,8.10
2009,05,07,07,32,8.10
2009,05,07,07,33,8.10
2009,05,07,07,34,8.10
2009,05,07,07,35,8.10
2009,05,07,07,36,8.10
2009,05,07,07,37,8.10
2009,05,07,07,38,8.10
2009,05,07,07,39,8.10
2009,05,07,07,40,8.10
2009,05,07,07,41,8.10
2009,05,07,07,42,8.10
2009,05,07,07,43,8.10
2009,05,07,07,44,8.10
2009,05,07,07,45,8.10
2009,05,07,07,46,8.10
2009,05,07,07,47,8.10
2009,05,07,07,48,8.10
2009,05,07,07,49,8.20
2009,05,07,07,50,8.20
2009,05,07,07,51,8.20
2009,05,07,07,52,8.20
2009,05,07,07,53,8.20
2009,05,07,07,54,8.20
2009,05,07,07,55,8.20
2009,05,07,07,56,8.20
2009,05,07,07,57,8.20
2009,05,07,07,58,8.20
2009,05,07,07,59,8.20
2009,05,07,08,00,8.20
2009,05,07,08,01,8.20
2009,05,07,08,02,8.20
2009,05,07,08,03,8.20
2009,05,07,08,04,8.20
2009,05,07,08,05,8.20
2009,05,07,08,06,8.20
2009,05,07,08,07,8.20
2009,05,07,08,08,8.20
2009,05,07,08,09,8.20
2009,05,07,08,10,8.20
2009,05,07,08,11,8.10
2009,05,07,08,12,8.10
2009,05,07,08,13,8.10
2009,05,07,08,14,8.10
2009,05,07,08,15,8.10
2009,05,07,08,16,8.10
2009,05,07,08,17,8.10
2009,05,07,08,18,8.20
2009,05,07,08,19,8.20
2009,05,07,08,20,8.20
2009,05,07,08,21,8.20
2009,05,07,08,22,8.20
2009,05,07,08,23,8.20
2009,05,07,08,24,8.20
2009,05,07,08,25,8.20
2009,05,07,08,26,8.20
2009,05,07,08,27,8.20
2009,05,07,08,28,8.30
2009,05,07,08,29,8.30
2009,05,07,08,30,8.30
2009,05,07,08,31,8.40
2009,05,07,08,32,8.40
2009,05,07,08,33,8.40
2009,05,07,08,34,8.40
2009,05,07,08,35,8.40
2009,05,07,08,36,8.40
2009,05,07,08,37,8.40
2009,05,07,08,38,8.40
2009,05,07,08,39,8.40
2009,05,07,08,40,8.40
2009,05,07,08,41,8.40
2009,05,07,08,42,8.40
2009,05,07,08,43,8.40
2009,05,07,08,44,8.40
2009,05,07,08,45,8.40
2009,05,07,08,46,8.40
2009,05,07,08,47,8.30
2009,05,07,08,48,8.30
2009,05,07,08,49,8.30
2009,05,07,08,50,8.30
2009,05,07,08,51,8.30
2009,05,07,08,52,8.40
2009,05,07,08,53,8.40
2009,05,07,08,54,8.40
2009,05,07,08,55,8.40
2009,05,07,08,56,8.40
2009,05,07,08,57,8.40
2009,05,07,08,58,8.40
2009,05,07,08,59,8.40
2009,05,07,09,00,8.40
2009,05,07,09,01,8.40
2009,05,07,09,02,8.50
2009,05,07,09,03,8.40
2009,05,07,09,04,8.40
2009,05,07,09,05,8.50
2009,05,07,09,06,8.50
2009,05,07,09,07,8.50
2009,05,07,09,08,8.40
2009,05,07,09,09,8.40
2009,05,07,09,10,8.40
2009,05,07,09,11,8.40
2009,05,07,09,12,8.40
2009,05,07,09,13,8.40
2009,05,07,09,14,8.40
2009,05,07,09,15,8.40
2009,05,07,09,16,8.40
2009,05,07,09,17,8.50
2009,05,07,09,18,8.50
2009,05,07,09,19,8.50
2009,05,07,09,20,8.60
2009,05,07,09,21,8.60
2009,05,07,09,22,8.60
2009,05,07,09,23,8.60
2009,05,07,09,24,8.60
2009,05,07,09,25,8.60
2009,05,07,09,26,8.60
2009,05,07,09,27,8.60
2009,05,07,09,28,8.60
2009,05,07,09,29,8.60
2009,05,07,09,30,8.60
2009,05,07,09,31,8.60
2009,05,07,09,32,8.60
2009,05,07,09,33,8.70
2009,05,07,09,34,8.70
2009,05,07,09,35,8.70
2009,05,07,09,36,8.70
2009,05,07,09,37,8.80
2009,05,07,09,38,8.80
2009,05,07,09,39,8.80
2009,05,07,09,40,8.80
2009,05,07,09,41,8.80
2009,05,07,09,42,8.80
2009,05,07,09,43,8.80
2009,05,07,09,44,8.80
2009,05,07,09,45,8.80
2009,05,07,09,46,8.80
2009,05,07,09,47,8.80
2009,05,07,09,48,8.80
2009,05,07,09,49,8.80
2009,05,07,09,50,8.80
2009,05,07,09,51,8.80
2009,05,07,09,52,8.80
2009,05,07,09,53,8.80
2009,05,07,09,54,8.80
2009,05,07,09,55,8.80
2009,05,07,09,56,8.90
2009,05,07,09,57,8.90
2009,05,07,09,58,8.90
2009,05,07,09,59,8.90
2009,05,07,10,00,8.90
2009,05,07,10,01,8.90
2009,05,07,10,02,8.80
2009,05,07,10,03,8.90
2009,05,07,10,04,8.90
2009,05,07,10,05,8.90
2009,05,07,10,06,8.90
2009,05,07,10,07,8.90
2009,05,07,10,08,8.90
2009,05,07,10,09,8.90
2009,05,07,10,10,8.90
2009,05,07,10,11,8.90
2009,05,07,10,12,8.90
2009,05,07,10,13,8.90
2009,05,07,10,14,9.00
2009,05,07,10,15,9.00
2009,05,07,10,16,9.00
2009,05,07,10,17,9.10
2009,05,07,10,18,9.10
2009,05,07,10,19,9.10
2009,05,07,10,20,9.10
2009,05,07,10,21,9.10
2009,05,07,10,22,9.20
2009,05,07,10,23,9.20
2009,05,07,10,24,9.20
2009,05,07,10,25,9.20
2009,05,07,10,26,9.20
2009,05,07,10,27,9.20
2009,05,07,10,28,9.10
2009,05,07,10,29,9.10
2009,05,07,10,30,9.20
2009,05,07,10,31,9.20
2009,05,07,10,32,9.20
2009,05,07,10,33,9.30
2009,05,07,10,34,9.30
2009,05,07,10,35,9.30
2009,05,07,10,36,9.30
2009,05,07,10,37,9.30
2009,05,07,10,38,9.30
2009,05,07,10,39,9.30
2009,05,07,10,40,9.40
2009,05,07,10,41,9.40
2009,05,07,10,42,9.50
2009,05,07,10,43,9.50
2009,05,07,10,44,9.50
2009,05,07,10,45,9.50
2009,05,07,10,46,9.50
2009,05,07,10,47,9.40
2009,05,07,10,48,9.50
2009,05,07,10,49,9.50
2009,05,07,10,50,9.50
2009,05,07,10,51,9.50
2009,05,07,10,52,9.60
2009,05,07,10,53,9.60
2009,05,07,10,54,9.60
2009,05,07,10,55,9.60
2009,05,07,10,56,9.60
2009,05,07,10,57,9.60
2009,05,07,10,58,9.60
2009,05,07,10,59,9.60
2009,05,07,11,00,9.70
2009,05,07,11,01,9.70
2009,05,07,11,02,9.80
2009,05,07,11,03,9.80
2009,05,07,11,04,9.90
2009,05,07,11,05,9.90
2009,05,07,11,06,9.90
2009,05,07,11,07,9.90
2009,05,07,11,08,9.90
2009,05,07,11,09,9.90
2009,05,07,11,10,9.90
2009,05,07,11,11,9.90
2009,05,07,11,12,9.90
2009,05,07,11,13,9.90
2009,05,07,11,14,9.90
2009,05,07,11,15,9.90
2009,05,07,11,16,9.90
2009,05,07,11,17,10.00
2009,05,07,11,18,10.10
2009,05,07,11,19,10.10
2009,05,07,11,20,10.10
2009,05,07,11,21,10.10
2009,05,07,11,22,10.20
2009,05,07,11,23,10.20
2009,05,07,11,24,10.20
2009,05,07,11,25,10.20
2009,05,07,11,26,10.20
2009,05,07,11,27,10.20
2009,05,07,11,28,10.20
2009,05,07,11,29,10.20
2009,05,07,11,30,10.30
2009,05,07,11,31,10.30
2009,05,07,11,32,10.30
2009,05,07,11,33,10.30
2009,05,07,11,34,10.30
2009,05,07,11,35,10.40
2009,05,07,11,36,10.40
2009,05,07,11,37,10.40
2009,05,07,11,38,10.30
2009,05,07,11,39,10.30
2009,05,07,11,40,10.30
2009,05,07,11,41,10.30
2009,05,07,11,42,10.30
2009,05,07,11,43,10.30
2009,05,07,11,44,10.40
2009,05,07,11,45,10.40
2009,05,07,11,46,10.50
2009,05,07,11,47,10.50
2009,05,07,11,48,10.60
2009,05,07,11,49,10.60
2009,05,07,11,50,10.60
2009,05,07,11,51,10.60
2009,05,07,11,52,10.70
2009,05,07,11,53,10.70
2009,05,07,11,54,10.70
2009,05,07,11,55,10.70
2009,05,07,11,56,10.70
2009,05,07,11,57,10.70
2009,05,07,11,58,10.70
2009,05,07,11,59,10.70
2009,05,07,12,00,10.70
2009,05,07,12,01,10.80
2009,05,07,12,02,10.80
2009,05,07,12,03,10.80
2009,05,07,12,04,10.80
2009,05,07,12,05,10.80
2009,05,07,12,06,10.80
2009,05,07,12,07,10.80
2009,05,07,12,08,10.80
2009,05,07,12,09,10.80
2009,05,07,12,10,10.90
2009,05,07,12,11,10.90
2009,05,07,12,12,11.00
2009,05,07,12,13,11.00
2009,05,07,12,14,11.00
2009,05,07,12,15,11.00
2009,05,07,12,16,11.00
2009,05,07,12,17,11.00
2009,05,07,12,18,11.10
2009,05,07,12,19,11.10
2009,05,07,12,20,11.10
2009,05,07,12,21,11.10
2009,05,07,12,22,11.10
2009,05,07,12,23,11.10
2009,05,07,12,24,11.10
2009,05,07,12,25,11.10
2009,05,07,12,26,11.10
2009,05,07,12,27,11.00
2009,05,07,12,28,10.90
2009,05,07,12,29,10.90
2009,05,07,12,30,10.90
2009,05,07,12,31,10.90
2009,05,07,12,32,10.90
2009,05,07,12,33,10.90
2009,05,07,12,34,10.90
2009,05,07,12,35,10.90
2009,05,07,12,36,10.90
2009,05,07,12,37,10.90
2009,05,07,12,38,10.90
2009,05,07,12,39,10.90
2009,05,07,12,40,11.00
2009,05,07,12,41,11.00
2009,05,07,12,42,11.10
2009,05,07,12,43,11.10
2009,05,07,12,44,11.10
2009,05,07,12,45,11.20
2009,05,07,12,46,11.20
2009,05,07,12,47,11.30
2009,05,07,12,48,11.30
2009,05,07,12,49,11.20
2009,05,07,12,50,11.30
2009,05,07,12,51,11.30
2009,05,07,12,52,11.40
2009,05,07,12,53,11.50
2009,05,07,12,54,11.50
2009,05,07,12,55,11.40
2009,05,07,12,56,11.40
2009,05,07,12,57,11.50
2009,05,07,12,58,11.50
2009,05,07,12,59,11.50
2009,05,07,13,00,11.60
2009,05,07,13,01,11.50
2009,05,07,13,02,11.50
2009,05,07,13,03,11.60
2009,05,07,13,04,11.50
2009,05,07,13,05,11.50
2009,05,07,13,06,11.60
2009,05,07,13,07,11.60
2009,05,07,13,08,11.60
2009,05,07,13,09,11.60
2009,05,07,13,10,11.70
2009,05,07,13,11,11.70
2009,05,07,13,12,11.70
2009,05,07,13,13,11.70
2009,05,07,13,14,11.70
2009,05,07,13,15,11.80
2009,05,07,13,16,11.70
2009,05,07,13,17,11.80
2009,05,07,13,18,11.90
2009,05,07,13,19,11.90
2009,05,07,13,20,11.90
2009,05,07,13,21,12.00
2009,05,07,13,22,12.00
2009,05,07,13,23,12.00
2009,05,07,13,24,12.00
2009,05,07,13,25,12.00
2009,05,07,13,26,12.10
2009,05,07,13,27,12.10
2009,05,07,13,28,12.00
2009,05,07,13,29,11.90
2009,05,07,13,30,11.90
2009,05,07,13,31,11.80
2009,05,07,13,32,11.80
2009,05,07,13,33,11.80
2009,05,07,13,34,11.80
2009,05,07,13,35,11.80
2009,05,07,13,36,11.70
2009,05,07,13,37,11.70
2009,05,07,13,38,11.80
2009,05,07,13,39,11.80
2009,05,07,13,40,11.90
2009,05,07,13,41,11.80
2009,05,07,13,42,11.80
2009,05,07,13,43,11.80
2009,05,07,13,44,11.80
2009,05,07,13,45,11.70
2009,05,07,13,46,11.70
2009,05,07,13,47,11.70
2009,05,07,13,48,11.70
2009,05,07,13,49,11.70
2009,05,07,13,50,11.70
2009,05,07,13,51,11.60
2009,05,07,13,52,11.60
2009,05,07,13,53,11.60
2009,05,07,13,54,11.70
2009,05,07,13,55,11.70
2009,05,07,13,56,11.70
2009,05,07,13,57,11.80
2009,05,07,13,58,11.70
2009,05,07,13,59,11.80
2009,05,07,14,00,11.80
2009,05,07,14,01,11.90
2009,05,07,14,02,11.90
2009,05,07,14,03,11.90
2009,05,07,14,04,12.00
2009,05,07,14,05,12.10
2009,05,07,14,06,12.20
2009,05,07,14,07,12.30
2009,05,07,14,08,12.40
2009,05,07,14,09,12.40
2009,05,07,14,10,12.60
2009,05,07,14,11,12.70
2009,05,07,14,12,12.80
2009,05,07,14,13,12.80
2009,05,07,14,14,12.80
2009,05,07,14,15,12.80
2009,05,07,14,16,12.80
2009,05,07,14,17,12.90
2009,05,07,14,18,12.80
2009,05,07,14,19,12.90
2009,05,07,14,20,12.90
2009,05,07,14,21,12.90
2009,05,07,14,22,12.90
2009,05,07,14,23,12.90
2009,05,07,14,24,12.80
2009,05,07,14,25,12.80
2009,05,07,14,26,12.70
2009,05,07,14,27,12.80
2009,05,07,14,28,12.80
2009,05,07,14,29,12.80
2009,05,07,14,30,12.80
2009,05,07,14,31,12.80
2009,05,07,14,32,12.70
2009,05,07,14,33,12.80
2009,05,07,14,34,12.90
2009,05,07,14,35,13.00
2009,05,07,14,36,12.90
2009,05,07,14,37,12.90
2009,05,07,14,38,12.90
2009,05,07,14,39,12.90
2009,05,07,14,40,13.00
2009,05,07,14,41,13.00
2009,05,07,14,42,13.00
2009,05,07,14,43,13.00
2009,05,07,14,44,13.00
2009,05,07,14,45,13.00
2009,05,07,14,46,12.90
2009,05,07,14,47,12.90
2009,05,07,14,48,12.90
2009,05,07,14,49,12.90
2009,05,07,14,50,12.90
2009,05,07,14,51,13.00
2009,05,07,14,52,13.00
2009,05,07,14,53,13.10
2009,05,07,14,54,13.10
2009,05,07,14,55,13.10
2009,05,07,14,56,13.00
2009,05,07,14,57,13.00
2009,05,07,14,58,13.00
2009,05,07,14,59,13.00
2009,05,07,15,00,13.10
2009,05,07,15,01,13.10
2009,05,07,15,02,13.10
2009,05,07,15,03,13.10
2009,05,07,15,04,13.10
2009,05,07,15,05,13.10
2009,05,07,15,06,13.10
2009,05,07,15,07,13.10
2009,05,07,15,08,13.10
2009,05,07,15,09,13.10
2009,05,07,15,10,13.10
2009,05,07,15,11,13.10
2009,05,07,15,12,13.10
2009,05,07,15,13,13.10
2009,05,07,15,14,13.00
2009,05,07,15,15,13.00
2009,05,07,15,16,12.90
2009,05,07,15,17,12.90
2009,05,07,15,18,13.00
2009,05,07,15,19,13.00
2009,05,07,15,20,13.10
2009,05,07,15,21,13.20
2009,05,07,15,22,13.10
2009,05,07,15,23,13.00
2009,05,07,15,24,13.00
2009,05,07,15,25,13.00
2009,05,07,15,26,13.00
2009,05,07,15,27,12.90
2009,05,07,15,28,12.90
2009,05,07,15,29,12.90
2009,05,07,15,30,12.90
2009,05,07,15,31,12.90
2009,05,07,15,32,12.90
2009,05,07,15,33,12.90
2009,05,07,15,34,12.90
2009,05,07,15,35,12.90
2009,05,07,15,36,12.90
2009,05,07,15,37,12.90
2009,05,07,15,38,12.90
2009,05,07,15,39,12.90
2009,05,07,15,40,12.90
2009,05,07,15,41,12.90
2009,05,07,15,42,12.90
2009,05,07,15,43,12.90
2009,05,07,15,44,12.90
2009,05,07,15,45,13.00
2009,05,07,15,46,13.00
2009,05,07,15,47,13.10
2009,05,07,15,48,13.10
2009,05,07,15,49,13.10
2009,05,07,15,50,13.10
2009,05,07,15,51,13.10
2009,05,07,15,52,13.10
2009,05,07,15,53,13.10
2009,05,07,15,54,13.20
2009,05,07,15,55,13.20
2009,05,07,15,56,13.20
2009,05,07,15,57,13.20
2009,05,07,15,58,13.20
2009,05,07,15,59,13.20
2009,05,07,16,00,13.20
2009,05,07,16,01,13.20
2009,05,07,16,02,13.20
2009,05,07,16,03,13.20
2009,05,07,16,04,13.20
2009,05,07,16,05,13.20
2009,05,07,16,06,13.10
2009,05,07,16,07,13.10
2009,05,07,16,08,13.10
2009,05,07,16,09,13.10
2009,05,07,16,10,13.00
2009,05,07,16,11,13.00
2009,05,07,16,12,13.00
2009,05,07,16,13,13.00
2009,05,07,16,14,13.00
2009,05,07,16,15,13.10
2009,05,07,16,16,13.20
2009,05,07,16,17,13.20
2009,05,07,16,18,13.30
2009,05,07,16,19,13.40
2009,05,07,16,20,13.40
2009,05,07,16,21,13.40
2009,05,07,16,22,13.30
2009,05,07,16,23,13.30
2009,05,07,16,24,13.30
2009,05,07,16,25,13.20
2009,05,07,16,26,13.20
2009,05,07,16,27,13.30
2009,05,07,16,28,13.40
2009,05,07,16,29,13.40
2009,05,07,16,30,13.50
2009,05,07,16,31,13.60
2009,05,07,16,32,13.60
2009,05,07,16,33,13.50
2009,05,07,16,34,13.50
2009,05,07,16,35,13.40
2009,05,07,16,36,13.30
2009,05,07,16,37,13.30
2009,05,07,16,38,13.30
2009,05,07,16,39,13.30
2009,05,07,16,40,13.30
2009,05,07,16,41,13.40
2009,05,07,16,42,13.60
2009,05,07,16,43,13.70
2009,05,07,16,44,13.70
2009,05,07,16,45,13.70
2009,05,07,16,46,13.80
2009,05,07,16,47,13.80
2009,05,07,16,48,13.80
2009,05,07,16,49,13.80
2009,05,07,16,50,13.80
2009,05,07,16,51,13.70
2009,05,07,16,52,13.60
2009,05,07,16,53,13.50
2009,05,07,16,54,13.40
2009,05,07,16,55,13.50
2009,05,07,16,56,13.50
2009,05,07,16,57,13.60
2009,05,07,16,58,13.60
2009,05,07,16,59,13.60
2009,05,07,17,00,13.60
2009,05,07,17,01,13.70
2009,05,07,17,02,13.80
2009,05,07,17,03,13.70
2009,05,07,17,04,13.60
2009,05,07,17,05,13.60
2009,05,07,17,06,13.50
2009,05,07,17,07,13.50
2009,05,07,17,08,13.40
2009,05,07,17,09,13.30
2009,05,07,17,10,13.30
2009,05,07,17,11,13.30
2009,05,07,17,12,13.40
2009,05,07,17,13,13.40
2009,05,07,17,14,13.40
2009,05,07,17,15,13.40
2009,05,07,17,16,13.50
2009,05,07,17,17,13.50
2009,05,07,17,18,13.50
2009,05,07,17,19,13.40
2009,05,07,17,20,13.40
2009,05,07,17,21,13.40
2009,05,07,17,22,13.50
2009,05,07,17,23,13.50
2009,05,07,17,24,13.50
2009,05,07,17,25,13.50
2009,05,07,17,26,13.60
2009,05,07,17,27,13.60
2009,05,07,17,28,13.60
2009,05,07,17,29,13.50
2009,05,07,17,30,13.50
2009,05,07,17,31,13.40
2009,05,07,17,32,13.30
2009,05,07,17,33,13.30
2009,05,07,17,34,13.40
2009,05,07,17,35,13.40
2009,05,07,17,36,13.40
2009,05,07,17,37,13.40
2009,05,07,17,38,13.40
2009,05,07,17,39,13.30
2009,05,07,17,40,13.30
2009,05,07,17,41,13.30
2009,05,07,17,42,13.30
2009,05,07,17,43,13.20
2009,05,07,17,44,13.20
2009,05,07,17,45,13.20
2009,05,07,17,46,13.20
2009,05,07,17,47,13.20
2009,05,07,17,48,13.30